Preview of NWS' New Version of Forecast
This preview is not operational and should not be used for support decisions.

Regional Weather Roundup (RWR)

Issued by National Weather Service (NWS)

                            
000
ASUS43 KDMX 221301
RWRIA 

WEATHER ROUNDUP FOR IOWA
NATIONAL WEATHER SERVICE DES MOINES IA
800 AM CDT SUN SEP 22 2019

NOTE: "FAIR" INDICATES FEW OR NO CLOUDS BELOW 12,000 FEET WITH NO
SIGNIFICANT WEATHER AND/OR OBSTRUCTIONS TO VISIBILITY.

* - THESE STATIONS ARE NOT NWS STATIONS...THUS NOT UNDER NWS
QUALITY CONTROL.  THEY ALSO DO NOT REPORT WEATHER SUCH 
AS PRECIPITATION OR FOG.  

IAZ001>003-012>014-020>022-031>034-043>046-221400-
   NORTHWEST IOWA
  
CITY           SKY/WX    TMP DP  RH WIND       PRES   REMARKS
CARROLL *      DRIZZLE   64  63  94 NW8       29.88S                  
CHEROKEE *     DRIZZLE   61  57  88 W3        29.94R                  
DENISON *      RAIN      63  63 100 NW5       29.93R                  
LE MARS *      CLOUDY    59  57  94 W7        29.95R                  
SIOUX CITY     LGT RAIN  58  55  90 NW9       29.96R                  
SPENCER        MOCLDY    61  57  87 NW5       29.92R                  
STORM LAKE *   CLOUDY    63  59  88 NW9G16    29.90R                  
$$
 
IAZ055>058-069>071-079>083-090>094-221400-
   SOUTHWEST IOWA
  
CITY           SKY/WX    TMP DP  RH WIND       PRES   REMARKS
ATLANTIC *     RAIN      64  64 100 CALM      29.88R                  
AUDUBON *      RAIN      64  63  94 CALM      29.90S                  
CLARINDA *     CLOUDY    64  64 100 S5        29.89F                  
COUNCIL BLFS * HVY RAIN  61  61 100 NW16G30   29.89R                  
CRESTON *      CLOUDY    63  63 100 CALM      29.89R                  
HARLAN  *      MOCLDY    64  64 100 CALM      29.88R FOG              
LAMONI         LGT RAIN  63  62  97 SE8       29.90S                  
RED OAK *      LGT RAIN  64  64 100 CALM      29.89R                  
SHENANDOAH *   CLOUDY    64  64 100 CALM      29.86R                  
$$
 
IAZ047>049-059>061-072>074-084-221400-
   CENTRAL IOWA
  
CITY           SKY/WX    TMP DP  RH WIND       PRES   REMARKS
AMES           CLEAR     66  65  96 CALM      29.87F                  
ANKENY *       DRIZZLE   64  64 100 CALM      29.86F                  
BOONE *        CLOUDY    64  64 100 VRB3      29.86F                  
CHARITON *     PTSUNNY   64  63  94 MISG      29.89S                  
DES MOINES     LGT RAIN  64  63  96 S7        29.85F                  
GRINNELL*      RAIN      64  63  98 S7        29.88S                  
KNOXVILLE *    LGT RAIN  64  64 100 S9        29.88S                  
MARSHALLTOWN   CLOUDY    64  64 100 W10       29.88R                  
NEWTON *       CLOUDY    64  64 100 VRB6      29.86F                  
PELLA *        LGT RAIN  64  63  96 S6        29.89S                  
PERRY *        MOCLDY    65  64  94 N3        29.86F                  
$$
 
IAZ004>006-015-016-023>025-035-036-221400-
   NORTH CENTRAL IOWA
  
CITY           SKY/WX    TMP DP  RH WIND       PRES   REMARKS
ALGONA *       CLOUDY    64  63  94 NW6       29.89R                  
ESTHERVILLE    MOCLDY    60  57  89 NW8       29.90R                  
FORT DODGE *   HVY RAIN  63  63 100 NW3       29.90R FOG              
MASON CITY     CLOUDY    64  62  93 NW3       29.89R                  
FOREST CITY *  CLOUDY    64  61  88 CALM      29.89R                  
IOWA FALLS *     N/A     66  62  87 S8        29.89F                  
$$

IAZ007>011-017>019-026>030-037>042-050>054-066-221400-
   NORTHEAST IOWA
  
CITY           SKY/WX    TMP DP  RH WIND       PRES   REMARKS
CEDAR RAPIDS   LGT RAIN  65  65 100 SW5       29.86F                  
CHARLES CITY * PTSUNNY   66  66 100 NW6       29.87R FOG              
CLINTON *      LGT RAIN  71  69  93 SW16      29.87S                  
DECORAH *      FAIR      66  66 100 VRB3      29.81F                  
DUBUQUE        CLOUDY    66  65  96 CALM      29.86F                  
MONTICELLO *   DRIZZLE   66  66 100 SE3       29.84F                  
OELWEIN *      PTSUNNY   66  66 100 W7        29.87R                  
WATERLOO       PTSUNNY   67  64  90 CALM      29.85R                  
$$
 
IAZ064-065-067-068-078-221400-
   EAST CENTRAL IOWA
  
CITY           SKY/WX    TMP DP  RH WIND       PRES   REMARKS
DAVENPORT      HVY RAIN  70  68  93 SW13G20   29.89R VSB 3/4          
IOWA CITY      LGT RAIN  69  66  90 S3        29.87F                  
MUSCATINE *    LGT RAIN  68  68 100 S7        29.88F                  
QUAD CITIES    CLOUDY    72  68  87 SW8       29.88R                  
$$
 
IAZ062-063-075>077-085>089-095>099-221400-
   SOUTHEAST IOWA
  
CITY           SKY/WX    TMP DP  RH WIND       PRES   REMARKS
BURLINGTON     LGT RAIN  67  65  93 W5        29.92R                  
FAIRFIELD *    MOSUNNY   64  64 100 SW8       29.91R FOG              
FORT MADISON * RAIN      66  66 100 CALM      29.93S                  
KEOKUK *       HVY RAIN  66  66 100 NW8       29.93R                  
OSKALOOSA *    LGT RAIN  64  63  96 S5        29.90R                  
OTTUMWA        LGT RAIN  64  64 100 S8        29.90R                  
WASHINGTON *   LGT RAIN  66  66 100 S6        29.88R                  
$$

ABBREVIATIONS USED IN REMARKS
   TC - TEMPERATURES IN CELSIUS
  WCI - WIND CHILL INDEX
   HX - HEAT INDEX
  VSB - VISIBILITY  
$$